Weather History for Galax, VA

Change the Weather History Date:

Tuesday, January 15, 2013

  Actual Average (KBLF) Record (KBLF)
Temperature  
Mean Temperature 42 °F 34 °F  
Max Temperature 46 °F 42 °F 65 °F (2007)
Min Temperature 39 °F 26 °F -9 °F (1994)
Degree Days  
Heating Degree Days 22 31  
Month to date heating degree days 465  
Since 1 July heating degree days 2230  
Cooling Degree Days 0 0  
Month to date cooling degree days 0  
Year to date cooling degree days 0  
Moisture  
Dew Point 43 °F    
Average Humidity 96    
Maximum Humidity 100    
Minimum Humidity 93    
Precipitation  
Precipitation 2.67 in 0.10 in 1.46 in (1995)
Month to date precipitation 1.42  
Year to date precipitation 1.42  
Snow  
Snow 0.00 in - - ()
Month to date snowfall  
Since 1 July snowfall  
Snow Depth -    
Sea Level Pressure  
Sea Level Pressure 30.14 in    
Wind  
Wind Speed 2 mph (East)    
Max Wind Speed 9 mph    
Max Gust Speed -    
Visibility 4 miles    
Events Rain    
T = Trace of Precipitation, MM = Missing Value Source: NWS Daily Summary

Daily Weather History Graph

Daily Weather History Graph

Search for Another Location

Airport:

Trip Planner

Search our weather history database for the weather conditions in past years. The results will help you decide how hot, cold, wet, or windy it might be!

Date:

Astronomy

Jan. 15, 2013 Rise Set
Actual Time 7:34 AM EST 5:31 PM EST
Civil Twilight 7:06 AM EST 5:59 PM EST
Nautical Twilight 6:34 AM EST 6:31 PM EST
Astronomical Twilight 6:03 AM EST 7:02 PM EST
Moon 9:47 AM EST (1/15) 10:10 PM EST (1/15)
Length of Visible Light 10h 52m
Length of Day
9h 56m
Waxing Crescent, 19% of the Moon is Illuminated
Jan 15
Waxing Crescent
Jan 18
First Quarter
Jan 26
Full
Feb 3
Last Quarter
Feb 10
New

Hourly Weather History & Observations

Time (EST) Temp. Windchill Dew Point Humidity Pressure Visibility Wind Dir Wind Speed Gust Speed Precip Events Conditions
12:15 AM 44.6 °F 42.2 °F 42.8 °F 93% 30.21 in 3.0 mi ENE 4.6 mph - 0.10 in Rain Light Rain
12:35 AM 44.6 °F 43.1 °F 42.8 °F 93% 30.20 in 4.0 mi NE 3.5 mph - 0.15 in Rain Rain
12:55 AM 44.6 °F 43.1 °F 42.8 °F 93% 30.21 in 2.5 mi North 3.5 mph - 0.04 in Rain Light Rain
1:15 AM 44.6 °F 43.1 °F 42.8 °F 93% 30.20 in 4.0 mi NNE 3.5 mph - 0.11 in Rain Light Rain
1:35 AM 44.6 °F - 42.8 °F 93% 30.18 in 2.5 mi Calm Calm - 0.15 in Rain Light Rain
1:55 AM 44.6 °F - 42.8 °F 93% 30.19 in 5.0 mi Calm Calm - 0.02 in Rain Rain
2:15 AM 44.6 °F - 42.8 °F 93% 30.18 in 7.0 mi Calm Calm - 0.05 in Rain Light Rain
2:35 AM 44.6 °F - 42.8 °F 93% 30.18 in 5.0 mi Calm Calm - 0.08 in Rain Rain
3:15 AM 44.6 °F - 42.8 °F 93% 30.16 in 7.0 mi Calm Calm - 0.02 in Rain Light Rain
3:35 AM 44.6 °F - 42.8 °F 93% 30.16 in 3.0 mi Calm Calm - 0.03 in Rain Light Rain
4:15 AM 44.6 °F - 44.6 °F 100% 30.14 in 4.0 mi Calm Calm - 0.03 in Rain Light Rain
4:35 AM 44.6 °F - 44.6 °F 100% 30.13 in 4.0 mi Calm Calm - 0.05 in Rain Rain
4:55 AM 44.6 °F - 44.6 °F 100% 30.13 in 2.0 mi Calm Calm - 0.04 in Rain Rain
5:35 AM 44.6 °F - 44.6 °F 100% 30.14 in 2.5 mi Calm Calm - 0.25 in   Overcast
5:55 AM 44.6 °F - 44.6 °F 100% 30.13 in 3.0 mi Calm Calm - 0.05 in   Overcast
6:15 AM 44.6 °F - 44.6 °F 100% 30.13 in 3.0 mi Calm Calm - 0.10 in Rain Light Rain
6:35 AM 44.6 °F 43.1 °F 44.6 °F 100% 30.14 in 3.0 mi North 3.5 mph - 0.16 in Rain Rain
7:15 AM 44.6 °F - 44.6 °F 100% 30.18 in 2.5 mi Calm Calm - 0.26 in   Overcast
7:35 AM 46.4 °F - 44.6 °F 93% 30.18 in 4.0 mi Calm Calm - 0.35 in   Overcast
7:55 AM 44.6 °F - 44.6 °F 100% 30.18 in 0.8 mi Calm Calm - 0.04 in Rain Rain
8:15 AM 44.6 °F 43.1 °F 44.6 °F 100% 30.20 in 1.8 mi North 3.5 mph - 0.07 in Rain Light Rain
8:35 AM 44.6 °F 42.2 °F 42.8 °F 93% 30.20 in 1.5 mi NE 4.6 mph - 0.09 in Rain Light Rain
8:55 AM 44.6 °F 43.1 °F 44.6 °F 100% 30.21 in 3.0 mi NE 3.5 mph - 0.04 in Rain Light Rain
9:15 AM 44.6 °F 43.1 °F 44.6 °F 100% 30.21 in 3.0 mi ENE 3.5 mph - 0.15 in   Overcast
9:35 AM 44.6 °F 43.1 °F 44.6 °F 100% 30.21 in 5.0 mi ENE 3.5 mph - 0.22 in Rain Rain
9:55 AM 44.6 °F - 44.6 °F 100% 30.21 in 10.0 mi Calm Calm - 0.01 in Rain Light Rain
10:15 AM 46.4 °F - 44.6 °F 93% 30.20 in 10.0 mi Calm Calm - 0.03 in Rain Rain
10:35 AM 46.4 °F - 44.6 °F 93% 30.20 in 7.0 mi Calm Calm - 0.06 in Rain Light Rain
10:55 AM 46.4 °F - 44.6 °F 93% 30.19 in 7.0 mi Calm Calm - 0.02 in Rain Light Rain
11:15 AM 46.4 °F - 44.6 °F 93% 30.19 in 5.0 mi Calm Calm - 0.07 in Rain Rain
11:35 AM 46.4 °F - 44.6 °F 93% 30.17 in 7.0 mi Calm Calm - 0.11 in Rain Light Rain
11:55 AM 46.4 °F 44.3 °F 44.6 °F 93% 30.17 in 10.0 mi ENE 4.6 mph - 0.01 in Rain Light Rain
12:15 PM 46.4 °F 45.2 °F 44.6 °F 93% 30.16 in 10.0 mi NE 3.5 mph - 0.03 in Rain Light Rain
12:35 PM 44.6 °F 40.2 °F 44.6 °F 100% 30.15 in 5.0 mi NE 8.1 mph - 0.05 in Rain Rain
12:55 PM 44.6 °F 42.2 °F 44.6 °F 100% 30.15 in 10.0 mi ENE 4.6 mph - 0.01 in Rain Rain
1:15 PM 44.6 °F 42.2 °F 44.6 °F 100% 30.14 in 2.5 mi ENE 4.6 mph - 0.05 in Rain Rain
1:35 PM 44.6 °F 43.1 °F 44.6 °F 100% 30.14 in 7.0 mi East 3.5 mph - 0.08 in Rain Rain
1:55 PM 44.6 °F 43.1 °F 44.6 °F 100% 30.13 in 10.0 mi ENE 3.5 mph - 0.01 in Rain Light Rain
2:35 PM 44.6 °F - 44.6 °F 100% 30.13 in 7.0 mi Calm Calm - 0.02 in   Drizzle
2:55 PM 44.6 °F 42.2 °F 44.6 °F 100% 30.13 in 2.0 mi NE 4.6 mph - 0.03 in Rain Rain
3:15 PM 44.6 °F 41.4 °F 44.6 °F 100% 30.13 in 5.0 mi East 5.8 mph - 0.08 in Rain Light Rain
3:35 PM 44.6 °F 41.4 °F 42.8 °F 93% 30.13 in 7.0 mi ENE 5.8 mph - 0.09 in Rain Rain
3:55 PM 42.8 °F 38.6 °F 42.8 °F 100% 30.14 in 4.0 mi East 6.9 mph - 0.02 in Rain Rain
4:15 PM 42.8 °F 39.3 °F 42.8 °F 100% 30.13 in 3.0 mi East 5.8 mph - 0.10 in Rain Rain
4:35 PM 42.8 °F 40.1 °F 42.8 °F 100% 30.14 in 2.0 mi East 4.6 mph - 0.18 in Rain Rain
4:55 PM 42.8 °F 40.1 °F 42.8 °F 100% 30.13 in 2.5 mi East 4.6 mph - 0.04 in   Overcast
5:15 PM 42.8 °F 39.3 °F 41.0 °F 93% 30.13 in 2.0 mi ESE 5.8 mph - 0.11 in Rain Rain
5:55 PM 42.8 °F 37.5 °F 41.0 °F 93% 30.10 in 4.0 mi ESE 9.2 mph - 0.04 in   Overcast
6:15 PM 42.8 °F 39.3 °F 41.0 °F 93% 30.11 in 7.0 mi ESE 5.8 mph - 0.08 in   Overcast
6:35 PM 42.8 °F - 41.0 °F 93% 30.11 in 7.0 mi Calm Calm - 0.14 in   Overcast
6:55 PM 42.8 °F - 41.0 °F 93% 30.14 in 2.0 mi Calm Calm - 0.09 in   Overcast
7:15 PM 42.8 °F - 41.0 °F 93% 30.13 in 2.5 mi Calm Calm - 0.19 in   Overcast
7:35 PM 42.8 °F 40.1 °F 41.0 °F 93% 30.10 in 5.0 mi East 4.6 mph - 0.23 in   Overcast
7:55 PM 42.8 °F - 41.0 °F 93% 30.11 in 4.0 mi Calm Calm - 0.01 in   Overcast
8:15 PM 42.8 °F - 41.0 °F 93% 30.10 in 2.5 mi Calm Calm - 0.06 in   Overcast
8:35 PM 42.8 °F - 41.0 °F 93% 30.09 in 1.0 mi Calm Calm - 0.07 in   Drizzle
8:55 PM 42.8 °F - 41.0 °F 93% 30.08 in 1.0 mi Calm Calm - N/A Rain Light Rain
9:15 PM 42.8 °F - 41.0 °F 93% 30.07 in 2.5 mi Calm Calm - 0.02 in   Light Drizzle
9:35 PM 42.8 °F - 41.0 °F 93% 30.06 in 1.5 mi Calm Calm - 0.04 in Rain Light Rain
9:55 PM 42.8 °F 41.1 °F 41.0 °F 93% 30.06 in 0.8 mi SE 3.5 mph - 0.01 in Rain Light Rain
10:15 PM 42.8 °F - 41.0 °F 93% 30.05 in 1.0 mi Calm Calm - 0.02 in   Overcast
10:35 PM 41.0 °F 38.0 °F 39.2 °F 93% 30.06 in 4.0 mi South 4.6 mph - 0.04 in   Overcast
10:55 PM 41.0 °F 38.0 °F 39.2 °F 93% 30.06 in 4.0 mi SSE 4.6 mph - N/A   Overcast
11:15 PM 39.2 °F 34.2 °F 39.2 °F 100% 30.05 in 4.0 mi South 6.9 mph - 0.01 in   Overcast
11:35 PM 41.0 °F 39.0 °F 39.2 °F 93% 30.05 in 4.0 mi South 3.5 mph - 0.02 in   Overcast
11:55 PM 41.0 °F 38.0 °F 39.2 °F 93% 30.04 in 5.0 mi SSE 4.6 mph - N/A   Overcast